[[{"header":{"parameterUnit":"m.s-1","parameterCategory":1,"la1":30.2991,"la2":30.254,"lo1":-89.0895,"lo2":-89.0444,"dy":0.0017,"dx":0.0017,"nx":28,"ny":28,"refTime":"2024-06-14T21:00:00:Z","depth":0,"parameterNumber":2,"parameterNumberName":"U-component_of_WINDS"},"data":[0,0,0,0,0,0,0,0,0,0,0,0,0,0,0,0,0,0,0,0,0,0,0,0,0,0,0,0,0,0,0,0,0,0,0,0,0,0,0,0,0,0,0,0,0,0,0,0,0,0,0,0,0,0,0,0,0,0,-2.0433,-2.0433,0,-2.0441,-2.0441,-2.0441,-2.0401,-2.04,-2.0399,-2.0398,-2.0407,-2.0409,-2.041,0,0,0,0,0,0,0,0,0,0,0,0,0,-2.0382,-2.0383,-2.0433,-2.0433,-2.0433,-2.0441,-2.0441,-2.0441,-2.0401,-2.04,-2.0399,-2.0397,-2.0407,-2.0409,-2.041,0,0,0,0,0,0,0,0,0,0,0,0,0,-2.0399,-2.0384,-2.0433,-2.0414,-2.0412,-2.0441,-2.0441,-2.0442,-2.0402,-2.04,-2.0398,-2.0397,-2.0406,-2.0408,-2.041,-2.0458,0,0,-2.0417,-2.0417,0,0,0,0,0,0,0,0,-2.0398,-2.0401,-2.0417,-2.0415,-2.0413,-2.0418,-2.0427,-2.0447,-2.0402,-2.0406,-2.0398,-2.0396,-2.0413,-2.0414,-2.0419,-2.0459,-2.0459,-2.0417,-2.0418,-2.0419,-2.0419,0,0,0,0,0,0,0,-2.0397,-2.04,-2.0436,-2.0417,-2.0415,-2.0405,-2.0406,-2.0431,-2.0419,-2.0405,-2.0402,-2.0404,-2.0411,-2.0418,-2.0419,-2.0459,-2.0417,-2.0419,-2.042,-2.0421,-2.0537,-2.0539,0,0,0,0,0,0,-2.0398,-2.0399,-2.0436,-2.0436,-2.0401,-2.0408,-2.0408,-2.0419,-2.0419,-2.0417,-2.0405,-2.0402,-2.0415,-2.0417,-2.042,-2.0475,-2.0419,-2.0421,-2.0422,-2.0535,-2.0538,-2.054,0,0,0,0,0,0,-2.0397,-2.0402,-2.0435,-2.0417,-2.0421,-2.041,-2.0422,-2.042,-2.0426,-2.0419,-2.0416,-2.0414,-2.0414,-2.0417,-2.0449,-2.0475,-2.0422,-2.0424,-2.0533,-2.0536,-2.0539,-2.0586,0,0,0,0,0,0,-2.0396,-2.0402,-2.0419,-2.0418,-2.0422,-2.0464,-2.0424,-2.0421,-2.0429,-2.0425,-2.0426,-2.0424,-2.0413,-2.0446,-2.0451,-2.0476,-2.0425,-2.0531,-2.0534,-2.0538,-2.0582,-2.059,-2.0597,0,0,0,0,0,-2.0394,-2.0433,-2.0421,-2.0425,-2.0444,-2.0466,-2.0468,-2.0453,-2.0432,-2.0449,-2.0445,-2.0424,-2.0471,-2.0449,-2.0455,-2.0481,-2.0529,-2.0533,-2.0537,-2.0579,-2.0589,-2.0597,0,0,0,0,0,0,-2.0438,-2.0432,-2.0419,-2.0458,-2.0463,-2.0459,-2.0481,-2.0464,-2.0476,-2.0471,-2.0453,-2.0453,-2.0488,-2.0488,-2.0464,-2.0527,-2.0496,-2.0502,-2.0526,-2.0535,-2.0543,-2.0542,-2.0427,0,0,0,0,0,-2.0452,-2.0471,-2.0464,-2.05,-2.0503,-2.0492,-2.0501,-2.0489,-2.0493,-2.0495,-2.0493,-2.0498,-2.0514,-2.0525,-2.0539,-2.0582,-2.0582,-2.0603,-2.0611,-2.0617,-2.0621,-2.0644,-2.0653,-2.0554,-2.0553,-2.0553,0,0,-2.0482,-2.0481,-2.0494,-2.0508,-2.0511,-2.053,-2.0494,-2.0516,-2.053,-2.0499,-2.0528,-2.0527,-2.0532,-2.0569,-2.0586,-2.057,-2.0649,-2.0622,-2.0627,-2.0628,-2.0649,-2.0659,-2.0667,-2.0556,-2.0556,-2.0555,0,0,-2.0546,-2.0547,-2.0576,-2.0579,-2.0583,-2.0575,-2.0582,-2.0581,-2.0579,-2.0609,-2.0585,-2.0602,-2.063,-2.0634,-2.0639,-2.0705,-2.0686,-2.071,-2.0749,-2.0771,-2.0779,-2.0785,-2.0808,-2.0817,-2.0715,-2.0715,-2.0715,0,-2.0582,-2.061,-2.0593,-2.0617,-2.0624,-2.0596,-2.0626,-2.0629,-2.0638,-2.0644,-2.0626,-2.066,-2.0661,-2.0699,-2.0715,-2.072,-2.0728,-2.0709,-2.0779,-2.0786,-2.0792,-2.0813,-2.0822,-2.0718,-2.0717,-2.0717,-2.0717,0,-2.0654,-2.0674,-2.0697,-2.0706,-2.0715,-2.0742,-2.0729,-2.0741,-2.0728,-2.0723,-2.0753,-2.0754,-2.0767,-2.0775,-2.0764,-2.0812,-2.0802,-2.0782,-2.075,-2.0804,-2.0824,-2.0832,-2.0722,-2.0721,-2.072,-2.0719,0,0,-2.0746,-2.0744,-2.0753,-2.0756,-2.0759,-2.0774,-2.0799,-2.0811,-2.0822,-2.0829,-2.0849,-2.0873,-2.0855,-2.0861,-2.085,-2.0869,-2.092,-2.0847,-2.0846,-2.086,-2.0973,-2.0987,-2.0997,-2.0908,-2.0909,-2.0911,-2.0972,0,-2.0808,-2.085,-2.0836,-2.0879,-2.0897,-2.0871,-2.0893,-2.0896,-2.0892,-2.0906,-2.0901,-2.0918,-2.0893,-2.0896,-2.0915,-2.091,-2.0942,-2.0905,-2.0927,-2.0928,-2.0926,-2.1007,-2.1023,-2.1081,-2.098,-2.0981,-2.0982,0,-2.0886,-2.0895,-2.094,-2.0939,-2.0946,-2.0965,-2.0976,-2.099,-2.0994,-2.0989,-2.0996,-2.098,-2.1005,-2.0974,-2.1007,-2.0983,-2.099,-2.099,-2.0991,-2.0992,-2.0958,-2.101,-2.1099,-2.1108,-2.0994,-2.0993,-2.0992,0,-2.0948,-2.0972,-2.1001,-2.1005,-2.1004,-2.1019,-2.1019,-2.1021,-2.1029,-2.1039,-2.1044,-2.1056,-2.1063,-2.1073,-2.1061,-2.1039,-2.1096,-2.1064,-2.1093,-2.1093,-2.1105,-2.1105,-2.1196,-2.1111,-2.1111,-2.1111,-2.1111,0,-2.1018,-2.1047,-2.1029,-2.1047,-2.1078,-2.1061,-2.1093,-2.109,-2.1092,-2.1109,-2.1088,-2.1105,-2.1088,-2.1103,-2.1094,-2.1123,-2.1126,-2.1123,-2.112,-2.1125,-2.1125,-2.1129,-2.1125,-2.1113,-2.1113,-2.1112,-2.1112,0,-2.1093,-2.1082,-2.1112,-2.1109,-2.1109,-2.1132,-2.1129,-2.1145,-2.1139,-2.1161,-2.1166,-2.1156,-2.1173,-2.1162,-2.1179,-2.1173,-2.121,-2.1202,-2.1209,-2.1207,-2.1236,-2.1233,-2.1333,-2.1345,-2.1253,-2.1254,-2.1255,0,-2.1138,-2.1159,-2.1158,-2.1168,-2.1169,-2.1186,-2.1194,-2.1178,-2.1188,-2.1193,-2.121,-2.1224,-2.1235,-2.1264,-2.1258,-2.1271,-2.1263,-2.1297,-2.1265,-2.1269,-2.1263,-2.1262,-2.1264,-2.1304,-2.1305,-2.1306,-2.1306,0,-2.122,-2.1214,-2.1226,-2.1237,-2.1248,-2.1256,-2.1262,-2.1271,-2.1255,-2.1267,-2.1284,-2.1292,-2.131,-2.1325,-2.1335,-2.1336,-2.1319,-2.1316,-2.1324,-2.1328,-2.1331,-2.133,-2.1226,-2.1314,-2.1313,-2.1313,-2.1312,-2.1312,-2.1281,-2.1299,-2.13,-2.1315,-2.1318,-2.1324,-2.1339,-2.1334,-2.1348,-2.136,-2.135,-2.137,-2.1373,-2.1385,-2.1388,-2.1404,-2.139,-2.14,-2.1403,-2.1406,-2.141,-2.1329,-2.1406,-2.1405,-2.1405,-2.1405,-2.1405,0,-2.1362,-2.1361,-2.1375,-2.1384,-2.1395,-2.1378,-2.1383,-2.1394,-2.1412,-2.1416,-2.1427,-2.1446,-2.146,-2.1456,-2.1469,-2.1482,-2.1474,-2.1486,-2.1484,-2.1485,-2.1421,-2.1414,-2.1492,-2.1492,-2.1492,-2.1492,-2.1492,-2.1492,-2.1405,-2.1433,-2.1427,-2.1456,-2.1455,-2.1474,-2.1479,-2.1484,-2.1487,-2.1509,-2.1521,-2.1518,-2.1518,-2.1531,-2.1543,-2.1541,-2.1547,-2.1561,-2.1557,-2.1498,-2.1489,-2.1481,-2.1474,-2.1563,-2.1563,-2.1619,-2.1619,-2.162]},{"header":{"parameterUnit":"m.s-1","parameterCategory":1,"la1":30.2991,"la2":30.254,"lo1":-89.0895,"lo2":-89.0444,"dy":0.0017,"dx":0.0017,"nx":28,"ny":28,"refTime":"2024-06-14T21:00:00:Z","depth":0,"parameterNumber":3,"parameterNumberName":"V-component_of_WINDS"},"data":[0,0,0,0,0,0,0,0,0,0,0,0,0,0,0,0,0,0,0,0,0,0,0,0,0,0,0,0,0,0,0,0,0,0,0,0,0,0,0,0,0,0,0,0,0,0,0,0,0,0,0,0,0,0,0,0,0,0,3.3223,3.3223,0,3.3224,3.3224,3.3224,3.317,3.3169,3.3167,3.3166,3.3166,3.3168,3.3169,0,0,0,0,0,0,0,0,0,0,0,0,0,3.3174,3.3176,3.3223,3.3223,3.3223,3.3224,3.3224,3.3224,3.3171,3.3169,3.3167,3.3166,3.3166,3.3167,3.3169,0,0,0,0,0,0,0,0,0,0,0,0,0,3.3187,3.3176,3.3223,3.3196,3.3194,3.3224,3.3224,3.3224,3.3171,3.3169,3.3167,3.3165,3.3165,3.3167,3.3169,3.3224,0,0,3.3175,3.3176,0,0,0,0,0,0,0,0,3.3187,3.3189,3.32,3.3198,3.3196,3.3195,3.3207,3.3224,3.3171,3.318,3.3166,3.3164,3.3177,3.3178,3.3183,3.3224,3.3224,3.3175,3.3177,3.3178,3.3178,0,0,0,0,0,0,0,3.3186,3.3189,3.3223,3.3201,3.3198,3.3184,3.3184,3.321,3.319,3.3179,3.3175,3.3176,3.3176,3.3181,3.3183,3.3224,3.3175,3.3177,3.3178,3.3179,3.3309,3.3311,0,0,0,0,0,0,3.3189,3.3188,3.3223,3.3223,3.3186,3.3187,3.3186,3.3197,3.319,3.3187,3.3178,3.3173,3.3179,3.318,3.3182,3.3245,3.3177,3.3179,3.318,3.3307,3.331,3.3312,0,0,0,0,0,0,3.3188,3.3192,3.3223,3.3205,3.3208,3.319,3.3203,3.3198,3.3204,3.3189,3.3185,3.3187,3.3177,3.318,3.3214,3.3245,3.318,3.3182,3.3304,3.3308,3.3311,3.3372,0,0,0,0,0,0,3.3187,3.3192,3.3213,3.3206,3.3209,3.3255,3.3205,3.32,3.3207,3.3202,3.3197,3.3194,3.3176,3.3211,3.3216,3.3246,3.3184,3.3301,3.3306,3.331,3.3367,3.3377,3.3386,0,0,0,0,0,3.3185,3.323,3.3214,3.3219,3.3234,3.3257,3.3258,3.3237,3.321,3.3231,3.3221,3.3194,3.3241,3.3215,3.322,3.3251,3.3299,3.3304,3.3309,3.3363,3.3375,3.3386,0,0,0,0,0,0,3.3241,3.3229,3.3211,3.3255,3.3257,3.3248,3.3273,3.3251,3.326,3.3255,3.3228,3.3227,3.3265,3.3262,3.3234,3.3304,3.3265,3.3272,3.3305,3.3316,3.3325,3.3325,3.3185,0,0,0,0,0,3.3259,3.3278,3.3266,3.3306,3.3308,3.3291,3.33,3.3283,3.3284,3.3285,3.3278,3.328,3.3295,3.3305,3.3318,3.3367,3.3365,3.3391,3.34,3.3408,3.3413,3.3439,3.345,3.3329,3.3329,3.3329,0,0,3.3295,3.3291,3.3305,3.3317,3.3317,3.3338,3.3292,3.3315,3.333,3.3288,3.332,3.3315,3.3316,3.3357,3.3375,3.3355,3.3447,3.3414,3.3421,3.3422,3.3445,3.3456,3.3467,3.3332,3.3332,3.3331,0,0,3.3372,3.3371,3.3404,3.3405,3.3405,3.3393,3.3401,3.3395,3.339,3.3422,3.3391,3.3408,3.3434,3.3436,3.344,3.3518,3.3493,3.3523,3.3571,3.3596,3.3605,3.3614,3.3641,3.3651,3.3529,3.3529,3.3529,0,3.3417,3.3446,3.3423,3.3449,3.3455,3.3419,3.3452,3.3454,3.3459,3.3464,3.3442,3.3475,3.3472,3.3514,3.3533,3.3538,3.3546,3.3523,3.3606,3.3614,3.3621,3.3647,3.3658,3.3532,3.3532,3.3532,3.3531,0,3.3501,3.3523,3.3549,3.3555,3.3564,3.3594,3.3575,3.3587,3.357,3.356,3.3593,3.3589,3.3601,3.3609,3.3593,3.3649,3.3636,3.3611,3.3571,3.3637,3.3661,3.367,3.3538,3.3536,3.3535,3.3534,0,0,3.3613,3.3606,3.3616,3.3618,3.3616,3.3632,3.3659,3.3671,3.3682,3.3687,3.3709,3.3733,3.3709,3.3714,3.3697,3.3719,3.378,3.369,3.369,3.3707,3.3841,3.386,3.3872,3.3764,3.3766,3.3767,3.3841,0,3.3686,3.3733,3.3713,3.3762,3.3781,3.3747,3.3771,3.3773,3.3764,3.3779,3.377,3.3787,3.3755,3.3757,3.3778,3.3769,3.3807,3.3763,3.3784,3.3785,3.3784,3.3884,3.3904,3.3973,3.385,3.3851,3.3853,0,3.3778,3.3787,3.3838,3.3833,3.384,3.3862,3.3871,3.3886,3.3887,3.3879,3.3885,3.3863,3.389,3.3851,3.3887,3.3858,3.3866,3.3863,3.3865,3.3865,3.3822,3.3887,3.3995,3.4005,3.3867,3.3866,3.3865,0,3.3854,3.3878,3.3912,3.3915,3.391,3.3926,3.3924,3.3923,3.3931,3.3939,3.3944,3.3955,3.3961,3.397,3.3952,3.3926,3.3991,3.395,3.3985,3.3985,3.3999,3.3998,3.411,3.4005,3.4005,3.4005,3.4005,0,3.3938,3.397,3.3946,3.3966,3.4001,3.3978,3.4013,3.4008,3.4008,3.4026,3.3998,3.4016,3.3991,3.4007,3.3993,3.4024,3.4027,3.4022,3.4018,3.4024,3.4025,3.4028,3.4023,3.4008,3.4007,3.4007,3.4006,0,3.4028,3.4013,3.4047,3.4039,3.4038,3.4064,3.4058,3.4076,3.4066,3.409,3.4095,3.4079,3.4096,3.4079,3.4095,3.4085,3.4128,3.4117,3.4128,3.4124,3.4159,3.4156,3.4276,3.4291,3.4178,3.4179,3.418,0,3.4082,3.4106,3.4101,3.4112,3.4112,3.413,3.4138,3.4117,3.4126,3.4129,3.4148,3.4162,3.4173,3.4202,3.4191,3.4203,3.4192,3.4233,3.4194,3.42,3.4192,3.4191,3.4193,3.4241,3.4243,3.4244,3.4245,0,3.418,3.4171,3.4185,3.4196,3.4206,3.4214,3.4219,3.4229,3.4207,3.422,3.4237,3.4245,3.4262,3.4276,3.4285,3.4284,3.4261,3.4257,3.4266,3.4272,3.4277,3.4275,3.4149,3.4255,3.4254,3.4253,3.4252,3.4252,3.4253,3.4273,3.4273,3.4288,3.429,3.4296,3.4313,3.4305,3.4319,3.4331,3.4317,3.4338,3.4339,3.4348,3.4349,3.4365,3.4348,3.436,3.4363,3.4367,3.4372,3.4276,3.4367,3.4367,3.4367,3.4366,3.4366,0,3.4349,3.4347,3.4362,3.4371,3.4383,3.4361,3.4365,3.4377,3.4396,3.4398,3.4409,3.4429,3.4444,3.4435,3.4447,3.4462,3.4451,3.4465,3.4464,3.4464,3.4387,3.4378,3.4474,3.4474,3.4473,3.4473,3.4473,3.4473,3.4401,3.4433,3.4424,3.4457,3.4455,3.4475,3.448,3.4485,3.4486,3.451,3.4522,3.4516,3.4514,3.4526,3.4538,3.4535,3.454,3.4558,3.4552,3.448,3.4469,3.4459,3.4451,3.456,3.456,3.4627,3.4628,3.4628]}]]